Terminal Aerodrome Forecast
Issued by NWS Portland, OR

Home | Current Version | Previous Version | Text Only | Print | Product List | Glossary On
Versions: 1 2 3 4 5 6 7 8 9 10 11 12 13 14 15 16 17 18 19 20 21 22 23 24 25 26 27 28
000
FTUS46 KPQR 020524
TAFHIO
TAF
KHIO 020524Z 0206/0306 31008KT P6SM SKC
     FM020700 VRB03KT P6SM SKC
     FM021400 VRB03KT P6SM BKN011
     FM021900 34007KT P6SM SCT035
     FM030100 31009KT P6SM BKN035=

USA.gov is the U.S. government's official web portal to all federal, state and local government web resources and services.